[[{"header":{"parameterUnit":"m.s-1","parameterCategory":1,"la1":30.2991,"la2":30.254,"lo1":-89.0895,"lo2":-89.0444,"dy":0.0017,"dx":0.0017,"nx":28,"ny":28,"refTime":"2024-08-04T09:00:00:Z","depth":0,"parameterNumber":2,"parameterNumberName":"U-component_of_WINDS"},"data":[0,0,0,0,0,0,0,0,0,0,0,0,0,0,0,0,0,0,0,0,0,0,0,0,0,0,0,0,0,0,0,0,0,0,0,0,0,0,0,0,0,0,0,0,0,0,0,0,0,0,0,0,0,0,0,0,0,0,-1.562,-1.5622,0,-1.5768,-1.5769,-1.5771,-1.5875,-1.5876,-1.5877,-1.5878,-1.6025,-1.6028,-1.6031,0,0,0,0,0,0,0,0,0,0,0,0,0,-1.5425,-1.5428,-1.562,-1.5622,-1.5624,-1.5768,-1.577,-1.5772,-1.5875,-1.5876,-1.5877,-1.5878,-1.6024,-1.6027,-1.6031,0,0,0,0,0,0,0,0,0,0,0,0,0,-1.5535,-1.5429,-1.562,-1.5693,-1.5701,-1.5767,-1.577,-1.5772,-1.5875,-1.5876,-1.5877,-1.5878,-1.6022,-1.6027,-1.6032,-1.6036,0,0,-1.6046,-1.6048,0,0,0,0,0,0,0,0,-1.5529,-1.5542,-1.568,-1.5688,-1.5697,-1.5804,-1.5755,-1.586,-1.5874,-1.5809,-1.5878,-1.5879,-1.595,-1.5961,-1.5986,-1.6043,-1.6049,-1.6046,-1.6049,-1.6051,-1.6053,0,0,0,0,0,0,0,-1.5521,-1.5536,-1.5678,-1.5682,-1.5692,-1.5717,-1.5734,-1.5775,-1.587,-1.5814,-1.5822,-1.5839,-1.5955,-1.5981,-1.599,-1.6051,-1.6046,-1.605,-1.6053,-1.6055,-1.612,-1.6119,0,0,0,0,0,0,-1.5502,-1.5529,-1.5674,-1.5683,-1.5614,-1.572,-1.5739,-1.5769,-1.587,-1.5887,-1.5837,-1.5843,-1.5972,-1.5984,-1.5995,-1.6007,-1.6051,-1.6056,-1.6058,-1.6121,-1.612,-1.6119,0,0,0,0,0,0,-1.5498,-1.5514,-1.5668,-1.5608,-1.563,-1.5722,-1.5754,-1.5771,-1.5797,-1.5888,-1.5905,-1.5847,-1.5974,-1.5989,-1.6025,-1.6014,-1.6058,-1.6062,-1.6122,-1.6121,-1.6119,-1.603,0,0,0,0,0,0,-1.5492,-1.5512,-1.5515,-1.5608,-1.5633,-1.5696,-1.5754,-1.5773,-1.5805,-1.5814,-1.5901,-1.5916,-1.5976,-1.6018,-1.603,-1.6021,-1.6066,-1.6124,-1.6122,-1.612,-1.6035,-1.6026,-1.6018,0,0,0,0,0,-1.5484,-1.5483,-1.5514,-1.5531,-1.5638,-1.5695,-1.5709,-1.5778,-1.5804,-1.5807,-1.5866,-1.5914,-1.6014,-1.6021,-1.6035,-1.6027,-1.6125,-1.6122,-1.612,-1.6038,-1.6028,-1.6019,0,0,0,0,0,0,-1.5384,-1.5496,-1.5532,-1.5561,-1.5618,-1.5712,-1.5718,-1.5765,-1.5814,-1.582,-1.5903,-1.5922,-1.595,-1.5993,-1.5999,-1.6038,-1.6075,-1.6075,-1.6008,-1.5999,-1.5991,-1.5979,-1.607,0,0,0,0,0,-1.5366,-1.5403,-1.5499,-1.5515,-1.5542,-1.5625,-1.5652,-1.5701,-1.5763,-1.5787,-1.5848,-1.5905,-1.595,-1.5977,-1.6023,-1.6042,-1.6063,-1.6044,-1.6036,-1.6029,-1.6027,-1.6042,-1.6035,-1.611,-1.611,-1.6111,0,0,-1.5327,-1.5393,-1.5411,-1.5496,-1.5546,-1.5582,-1.5644,-1.568,-1.5707,-1.5792,-1.583,-1.5877,-1.5947,-1.5975,-1.599,-1.6012,-1.6012,-1.6026,-1.6019,-1.6022,-1.6038,-1.6031,-1.6025,-1.6109,-1.6109,-1.6109,0,0,-1.5275,-1.5329,-1.5349,-1.5398,-1.5474,-1.553,-1.5534,-1.5622,-1.5657,-1.5698,-1.5762,-1.5796,-1.5871,-1.5918,-1.5951,-1.592,-1.5966,-1.5933,-1.5889,-1.5902,-1.5896,-1.5891,-1.5879,-1.5874,-1.5931,-1.5931,-1.5931,0,-1.5217,-1.5276,-1.5353,-1.5385,-1.542,-1.5501,-1.5521,-1.5565,-1.565,-1.5673,-1.5696,-1.5793,-1.5845,-1.5885,-1.5878,-1.5903,-1.591,-1.5922,-1.5891,-1.5887,-1.5883,-1.5873,-1.5868,-1.5927,-1.5927,-1.5928,-1.5928,0,-1.52,-1.524,-1.5247,-1.5329,-1.5366,-1.5392,-1.5472,-1.55,-1.5546,-1.5599,-1.564,-1.5706,-1.5767,-1.5781,-1.5826,-1.5828,-1.5839,-1.5875,-1.5914,-1.587,-1.5862,-1.5859,-1.592,-1.5922,-1.5923,-1.5924,0,0,-1.5087,-1.5214,-1.5215,-1.5254,-1.5344,-1.5376,-1.5406,-1.5467,-1.5489,-1.5546,-1.5573,-1.5635,-1.567,-1.5708,-1.576,-1.5771,-1.5742,-1.5806,-1.5809,-1.5791,-1.5749,-1.572,-1.5714,-1.5774,-1.5773,-1.5773,-1.5743,0,-1.5048,-1.5107,-1.5178,-1.5212,-1.525,-1.5328,-1.5354,-1.5412,-1.5463,-1.5502,-1.5558,-1.5601,-1.5644,-1.5668,-1.5683,-1.5742,-1.5734,-1.5746,-1.5798,-1.5799,-1.5777,-1.571,-1.5679,-1.5647,-1.574,-1.5739,-1.5739,0,-1.501,-1.5065,-1.5103,-1.5192,-1.521,-1.5232,-1.5295,-1.5331,-1.5399,-1.5435,-1.5479,-1.5535,-1.557,-1.5606,-1.5656,-1.5662,-1.5688,-1.5721,-1.5721,-1.5727,-1.5765,-1.5713,-1.5638,-1.5633,-1.5735,-1.5735,-1.5736,0,-1.4922,-1.5006,-1.504,-1.5071,-1.5175,-1.5189,-1.5233,-1.5302,-1.5335,-1.5389,-1.5412,-1.5469,-1.55,-1.5543,-1.5613,-1.5633,-1.5655,-1.5697,-1.5685,-1.5683,-1.5685,-1.5683,-1.5612,-1.5704,-1.5704,-1.5704,-1.5704,0,-1.4871,-1.489,-1.5002,-1.5023,-1.5048,-1.513,-1.5152,-1.5203,-1.5264,-1.5295,-1.5367,-1.5395,-1.5486,-1.5525,-1.558,-1.5612,-1.5626,-1.5656,-1.567,-1.5649,-1.5645,-1.5666,-1.5669,-1.5703,-1.5703,-1.5703,-1.5703,0,-1.4776,-1.4852,-1.4894,-1.499,-1.5015,-1.5028,-1.5111,-1.5133,-1.519,-1.5229,-1.5243,-1.5331,-1.538,-1.5455,-1.5526,-1.5564,-1.5587,-1.5611,-1.5564,-1.5572,-1.5556,-1.5556,-1.5494,-1.549,-1.5585,-1.5584,-1.5583,0,-1.4737,-1.4754,-1.4853,-1.488,-1.4922,-1.4964,-1.4999,-1.5081,-1.5114,-1.5194,-1.5207,-1.5262,-1.5311,-1.5386,-1.5456,-1.5511,-1.5536,-1.5511,-1.5544,-1.5523,-1.5535,-1.5532,-1.5534,-1.5502,-1.55,-1.5499,-1.5498,0,-1.4659,-1.4697,-1.4744,-1.4806,-1.4845,-1.4897,-1.4952,-1.497,-1.5064,-1.5097,-1.515,-1.5187,-1.5262,-1.5315,-1.5381,-1.5426,-1.5477,-1.5488,-1.5488,-1.5465,-1.5437,-1.5451,-1.5541,-1.5488,-1.5489,-1.549,-1.549,-1.5491,-1.4591,-1.4611,-1.4684,-1.4735,-1.4785,-1.4836,-1.4862,-1.4923,-1.4969,-1.5036,-1.5082,-1.5131,-1.52,-1.5294,-1.5336,-1.5376,-1.5398,-1.5398,-1.5398,-1.5396,-1.5388,-1.5432,-1.5388,-1.5389,-1.5389,-1.5389,-1.539,0,-1.4517,-1.4568,-1.4615,-1.469,-1.4731,-1.4778,-1.4842,-1.4872,-1.4915,-1.4976,-1.5023,-1.5083,-1.5137,-1.5212,-1.5271,-1.5288,-1.5313,-1.5301,-1.5299,-1.5309,-1.5366,-1.5359,-1.5279,-1.5279,-1.5279,-1.5279,-1.5279,-1.5279,-1.4482,-1.4518,-1.4564,-1.4626,-1.4678,-1.4728,-1.476,-1.4807,-1.4856,-1.4921,-1.4966,-1.5015,-1.5082,-1.5147,-1.5198,-1.5219,-1.5236,-1.5216,-1.5244,-1.5295,-1.5305,-1.5314,-1.5309,-1.522,-1.5219,-1.5184,-1.5183,-1.5183]},{"header":{"parameterUnit":"m.s-1","parameterCategory":1,"la1":30.2991,"la2":30.254,"lo1":-89.0895,"lo2":-89.0444,"dy":0.0017,"dx":0.0017,"nx":28,"ny":28,"refTime":"2024-08-04T09:00:00:Z","depth":0,"parameterNumber":3,"parameterNumberName":"V-component_of_WINDS"},"data":[0,0,0,0,0,0,0,0,0,0,0,0,0,0,0,0,0,0,0,0,0,0,0,0,0,0,0,0,0,0,0,0,0,0,0,0,0,0,0,0,0,0,0,0,0,0,0,0,0,0,0,0,0,0,0,0,0,0,0.4776,0.4777,0,0.493,0.4932,0.4933,0.4986,0.4986,0.4985,0.4985,0.5134,0.5139,0.5143,0,0,0,0,0,0,0,0,0,0,0,0,0,0.4519,0.4523,0.4775,0.4777,0.4779,0.493,0.4932,0.4934,0.4986,0.4986,0.4985,0.4984,0.5133,0.5138,0.5144,0,0,0,0,0,0,0,0,0,0,0,0,0,0.4647,0.4525,0.4775,0.4824,0.483,0.4929,0.4932,0.4934,0.4987,0.4986,0.4985,0.4984,0.5131,0.5138,0.5144,0.5204,0,0,0.5165,0.5168,0,0,0,0,0,0,0,0,0.464,0.4657,0.4815,0.4821,0.4828,0.4938,0.4896,0.5024,0.4987,0.4927,0.4985,0.4984,0.5069,0.5081,0.5112,0.5211,0.5217,0.5166,0.517,0.5173,0.5175,0,0,0,0,0,0,0,0.4631,0.465,0.4836,0.4817,0.4825,0.4836,0.4853,0.4921,0.5001,0.4932,0.4936,0.4954,0.5072,0.5105,0.5115,0.5219,0.5165,0.5171,0.5176,0.5178,0.5376,0.5378,0,0,0,0,0,0,0.4615,0.4642,0.4831,0.4841,0.473,0.4841,0.486,0.4903,0.5,0.5014,0.4955,0.4956,0.5094,0.5107,0.5121,0.5198,0.5173,0.5179,0.5183,0.5375,0.5377,0.5378,0,0,0,0,0,0,0.4609,0.4631,0.4825,0.4743,0.4769,0.4847,0.4894,0.4907,0.494,0.5018,0.5031,0.4974,0.5094,0.5111,0.5184,0.5204,0.5182,0.5188,0.5374,0.5376,0.5377,0.5352,0,0,0,0,0,0,0.4602,0.4629,0.4654,0.4743,0.4773,0.4887,0.4896,0.491,0.4952,0.4955,0.5039,0.5052,0.5094,0.5173,0.519,0.5213,0.5194,0.5372,0.5375,0.5377,0.5351,0.5352,0.5354,0,0,0,0,0,0.4592,0.4638,0.4655,0.4677,0.4806,0.4888,0.4905,0.4955,0.4954,0.4978,0.5029,0.5049,0.5199,0.518,0.52,0.5225,0.5371,0.5374,0.5377,0.535,0.5352,0.5353,0,0,0,0,0,0,0.4545,0.4651,0.467,0.4747,0.4809,0.4897,0.493,0.4955,0.5016,0.5016,0.5073,0.5091,0.5159,0.5199,0.5176,0.5288,0.5286,0.5293,0.526,0.5262,0.5263,0.5251,0.5199,0,0,0,0,0,0.4545,0.4606,0.4693,0.4752,0.4783,0.4851,0.4888,0.4922,0.4987,0.5013,0.5068,0.5128,0.5189,0.5228,0.5288,0.5357,0.5376,0.5384,0.5385,0.5386,0.5391,0.5431,0.5436,0.5387,0.5387,0.5387,0,0,0.4542,0.4608,0.4642,0.4745,0.4796,0.4856,0.4872,0.4934,0.4978,0.5021,0.5094,0.5137,0.5207,0.5279,0.5313,0.5314,0.5409,0.5389,0.5389,0.5394,0.5434,0.5439,0.5443,0.5389,0.5388,0.5388,0,0,0.4569,0.4625,0.4681,0.4734,0.4813,0.4859,0.4872,0.4958,0.4989,0.5064,0.5097,0.5149,0.5253,0.5302,0.5341,0.5389,0.541,0.5406,0.5412,0.5451,0.5455,0.5459,0.5476,0.5481,0.5411,0.5411,0.5411,0,0.4555,0.4649,0.4706,0.4768,0.4811,0.4857,0.4913,0.496,0.5053,0.5082,0.5083,0.5215,0.5265,0.535,0.5362,0.5391,0.5408,0.5397,0.545,0.5455,0.5459,0.5476,0.5482,0.541,0.541,0.541,0.5411,0,0.4629,0.4693,0.4729,0.4822,0.487,0.4928,0.4992,0.5033,0.5063,0.5108,0.5183,0.5246,0.532,0.5343,0.5371,0.5432,0.543,0.544,0.5439,0.5462,0.5479,0.5486,0.5409,0.5409,0.541,0.541,0,0,0.4628,0.4755,0.4767,0.4811,0.4903,0.4952,0.5012,0.5088,0.5123,0.5186,0.5237,0.5325,0.5335,0.5379,0.5413,0.5447,0.5482,0.5453,0.5456,0.5456,0.5552,0.5544,0.5551,0.5497,0.5499,0.55,0.5546,0,0.4667,0.478,0.4833,0.4921,0.4982,0.5026,0.5079,0.514,0.5183,0.5239,0.5286,0.5348,0.5357,0.5384,0.542,0.547,0.5502,0.5467,0.5543,0.5545,0.5524,0.556,0.5551,0.5592,0.5553,0.5555,0.5555,0,0.4727,0.4794,0.4889,0.4977,0.5004,0.505,0.5125,0.5178,0.5248,0.5277,0.5328,0.5361,0.5425,0.542,0.5507,0.5483,0.5517,0.5547,0.5549,0.5558,0.5551,0.5569,0.5607,0.5612,0.5566,0.5565,0.5565,0,0.4717,0.4831,0.4904,0.494,0.5043,0.5074,0.5118,0.5188,0.523,0.5295,0.5323,0.5392,0.543,0.5482,0.5533,0.5525,0.5616,0.5615,0.5641,0.5639,0.5657,0.5655,0.57,0.5679,0.5679,0.5679,0.5679,0,0.4755,0.4811,0.4902,0.4946,0.501,0.507,0.5131,0.5178,0.524,0.5293,0.5334,0.5382,0.5447,0.5503,0.5543,0.5609,0.5626,0.565,0.566,0.5646,0.5643,0.5669,0.5667,0.5681,0.568,0.568,0.568,0,0.4754,0.4817,0.4899,0.4992,0.5016,0.5059,0.5137,0.5181,0.5228,0.5294,0.5313,0.5385,0.5453,0.551,0.5598,0.5625,0.5694,0.5706,0.5671,0.5677,0.5699,0.5696,0.5762,0.5773,0.5744,0.5745,0.5745,0,0.4774,0.4819,0.4918,0.4958,0.5002,0.5066,0.5111,0.5172,0.5216,0.5301,0.5334,0.5406,0.5466,0.5572,0.5631,0.5699,0.5712,0.5731,0.5722,0.5708,0.5713,0.5709,0.5714,0.5731,0.5731,0.5731,0.5731,0,0.4802,0.4832,0.4897,0.4973,0.5027,0.5089,0.5152,0.5181,0.5253,0.5301,0.5373,0.5421,0.5513,0.5583,0.5658,0.57,0.5727,0.5734,0.5743,0.5729,0.5708,0.572,0.5673,0.5731,0.5731,0.5731,0.5731,0.5731,0.4813,0.4855,0.4932,0.5003,0.5058,0.5117,0.5163,0.5217,0.5279,0.5361,0.5393,0.5466,0.5535,0.5639,0.5682,0.5739,0.5742,0.5756,0.5759,0.5762,0.576,0.5699,0.5753,0.5753,0.5753,0.5753,0.5753,0,0.4843,0.4896,0.4961,0.505,0.5105,0.513,0.5201,0.5245,0.5311,0.5374,0.5435,0.5517,0.5586,0.5652,0.5723,0.5756,0.5771,0.5773,0.5771,0.578,0.5753,0.5737,0.5761,0.576,0.576,0.576,0.576,0.576,0.4865,0.494,0.4979,0.508,0.5131,0.5206,0.5245,0.5299,0.535,0.5442,0.5501,0.5545,0.5609,0.5686,0.575,0.5767,0.5791,0.5791,0.5811,0.5784,0.5782,0.5781,0.5767,0.5795,0.5795,0.5834,0.5834,0.5835]}]]